owner,sensor,date,latitude,longitude,vertical_datum,wind_speed,wind_to_direction,wind_speed_of_gust,qcFlag 
WAVCIS,ioos:station:WAVCIS:CSI15:1,2010-10-01T00:00:00Z,28.8332,-90.8320,10.0,7.54,315.0,,'11111222,11111222,99999999' 
WAVCIS,ioos:station:WAVCIS:CSI15:1,2010-10-01T01:00:00Z,28.8332,-90.8320,10.0,9.1,307.0,,'11111222,11111222,99999999' 
WAVCIS,ioos:station:WAVCIS:CSI15:1,2010-10-01T02:00:00Z,28.8332,-90.8320,10.0,8.97,310.0,,'11111222,11111222,99999999' 
WAVCIS,ioos:station:WAVCIS:CSI15:1,2010-10-01T03:00:00Z,28.8332,-90.8320,10.0,8.92,318.0,,'11111222,11111222,99999999' 
WAVCIS,ioos:station:WAVCIS:CSI15:1,2010-10-01T04:00:00Z,28.8332,-90.8320,10.0,8.96,323.0,,'11111222,11111222,99999999' 
WAVCIS,ioos:station:WAVCIS:CSI15:1,2010-10-01T05:00:00Z,28.8332,-90.8320,10.0,7.83,325.0,,'11111222,11111222,99999999' 
WAVCIS,ioos:station:WAVCIS:CSI15:1,2010-10-01T06:00:00Z,28.8332,-90.8320,10.0,7.75,321.0,,'11111222,11111222,99999999' 
WAVCIS,ioos:station:WAVCIS:CSI15:1,2010-10-01T07:00:00Z,28.8332,-90.8320,10.0,8.75,328.0,,'11111222,11111222,99999999' 
WAVCIS,ioos:station:WAVCIS:CSI15:1,2010-10-01T08:00:00Z,28.8332,-90.8320,10.0,8.77,335.0,,'11111222,11111222,99999999' 
WAVCIS,ioos:station:WAVCIS:CSI15:1,2010-10-01T09:00:00Z,28.8332,-90.8320,10.0,7.93,334.0,,'11111222,11111222,99999999' 
WAVCIS,ioos:station:WAVCIS:CSI15:1,2010-10-01T10:00:00Z,28.8332,-90.8320,10.0,7.19,338.0,,'11111222,11111222,99999999' 
WAVCIS,ioos:station:WAVCIS:CSI15:1,2010-10-01T11:00:00Z,28.8332,-90.8320,10.0,7.27,340.0,,'11111222,11111222,99999999' 
WAVCIS,ioos:station:WAVCIS:CSI15:1,2010-10-01T12:00:00Z,28.8332,-90.8320,10.0,7.87,345.0,,'11111222,11111222,99999999' 
WAVCIS,ioos:station:WAVCIS:CSI15:1,2010-10-01T13:00:00Z,28.8332,-90.8320,10.0,9.29,352.0,,'11111222,11111222,99999999' 
WAVCIS,ioos:station:WAVCIS:CSI15:1,2010-10-01T14:00:00Z,28.8332,-90.8320,10.0,7.91,358.0,,'11111222,11111222,99999999' 
WAVCIS,ioos:station:WAVCIS:CSI15:1,2010-10-01T15:00:00Z,28.8332,-90.8320,10.0,7.63,5.0,,'11111222,11111222,99999999' 
WAVCIS,ioos:station:WAVCIS:CSI15:1,2010-10-01T16:00:00Z,28.8332,-90.8320,10.0,6.257,3.0,,'11111222,11111222,99999999' 
WAVCIS,ioos:station:WAVCIS:CSI15:1,2010-10-01T17:00:00Z,28.8332,-90.8320,10.0,5.163,6.0,,'11111222,11111222,99999999' 
WAVCIS,ioos:station:WAVCIS:CSI15:1,2010-10-01T18:00:00Z,28.8332,-90.8320,10.0,4.364,357.0,,'11111222,11111222,99999999' 
WAVCIS,ioos:station:WAVCIS:CSI15:1,2010-10-01T19:00:00Z,28.8332,-90.8320,10.0,3.446,348.0,,'11111222,11111222,99999999' 
WAVCIS,ioos:station:WAVCIS:CSI15:1,2010-10-01T20:00:00Z,28.8332,-90.8320,10.0,0.866,274.0,,'11111222,11111222,99999999' 
WAVCIS,ioos:station:WAVCIS:CSI15:1,2010-10-01T21:00:00Z,28.8332,-90.8320,10.0,2.035,259.0,,'11111222,11111222,99999999' 
WAVCIS,ioos:station:WAVCIS:CSI15:1,2010-10-01T22:00:00Z,28.8332,-90.8320,10.0,6.897,305.0,,'11111222,11111222,99999999' 
WAVCIS,ioos:station:WAVCIS:CSI15:1,2010-10-01T23:00:00Z,28.8332,-90.8320,10.0,7.38,309.0,,'11111222,11111222,99999999' 
WAVCIS,ioos:station:WAVCIS:CSI15:1,2010-10-02T00:00:00Z,28.8332,-90.8320,10.0,8.69,313.0,,'11111222,11111222,99999999' 
WAVCIS,ioos:station:WAVCIS:CSI15:1,2010-10-02T01:00:00Z,28.8332,-90.8320,10.0,9.7,316.0,,'11111222,11111222,99999999' 
WAVCIS,ioos:station:WAVCIS:CSI15:1,2010-10-02T02:00:00Z,28.8332,-90.8320,10.0,11.49,318.0,,'11111222,11111222,99999999' 
WAVCIS,ioos:station:WAVCIS:CSI15:1,2010-10-02T03:00:00Z,28.8332,-90.8320,10.0,12.27,322.0,,'11111222,11111222,99999999' 
WAVCIS,ioos:station:WAVCIS:CSI15:1,2010-10-02T04:00:00Z,28.8332,-90.8320,10.0,11.41,337.0,,'11111222,11111222,99999999' 
WAVCIS,ioos:station:WAVCIS:CSI15:1,2010-10-02T05:00:00Z,28.8332,-90.8320,10.0,10.6,338.0,,'11111222,11111222,99999999' 
WAVCIS,ioos:station:WAVCIS:CSI15:1,2010-10-02T06:00:00Z,28.8332,-90.8320,10.0,10.18,351.0,,'11111222,11111222,99999999' 
WAVCIS,ioos:station:WAVCIS:CSI15:1,2010-10-02T07:00:00Z,28.8332,-90.8320,10.0,9.97,353.0,,'11111222,11111222,99999999' 
WAVCIS,ioos:station:WAVCIS:CSI15:1,2010-10-02T08:00:00Z,28.8332,-90.8320,10.0,10.21,356.0,,'11111222,11111222,99999999' 
WAVCIS,ioos:station:WAVCIS:CSI15:1,2010-10-02T09:00:00Z,28.8332,-90.8320,10.0,8.41,348.0,,'11111222,11111222,99999999' 
WAVCIS,ioos:station:WAVCIS:CSI15:1,2010-10-02T10:00:00Z,28.8332,-90.8320,10.0,8.2,352.0,,'11111222,11111222,99999999' 
WAVCIS,ioos:station:WAVCIS:CSI15:1,2010-10-02T11:00:00Z,28.8332,-90.8320,10.0,7.63,359.0,,'11111222,11111222,99999999' 
WAVCIS,ioos:station:WAVCIS:CSI15:1,2010-10-02T12:00:00Z,28.8332,-90.8320,10.0,7.39,1.0,,'11111222,11111222,99999999' 
WAVCIS,ioos:station:WAVCIS:CSI15:1,2010-10-02T13:00:00Z,28.8332,-90.8320,10.0,7.63,359.0,,'11111222,11111222,99999999' 
WAVCIS,ioos:station:WAVCIS:CSI15:1,2010-10-02T14:00:00Z,28.8332,-90.8320,10.0,7.14,1.0,,'11111222,11111222,99999999' 
WAVCIS,ioos:station:WAVCIS:CSI15:1,2010-10-02T15:00:00Z,28.8332,-90.8320,10.0,6.987,2.0,,'11111222,11111222,99999999' 
WAVCIS,ioos:station:WAVCIS:CSI15:1,2010-10-02T16:00:00Z,28.8332,-90.8320,10.0,6.85,2.0,,'11111222,11111222,99999999' 
WAVCIS,ioos:station:WAVCIS:CSI15:1,2010-10-02T17:00:00Z,28.8332,-90.8320,10.0,5.739,1.0,,'11111222,11111222,99999999' 
WAVCIS,ioos:station:WAVCIS:CSI15:1,2010-10-02T18:00:00Z,28.8332,-90.8320,10.0,5.455,358.0,,'11111222,11111222,99999999' 
WAVCIS,ioos:station:WAVCIS:CSI15:1,2010-10-02T19:00:00Z,28.8332,-90.8320,10.0,4.909,359.0,,'11111222,11111222,99999999' 
WAVCIS,ioos:station:WAVCIS:CSI15:1,2010-10-02T20:00:00Z,28.8332,-90.8320,10.0,4.424,340.0,,'11111222,11111222,99999999' 
WAVCIS,ioos:station:WAVCIS:CSI15:1,2010-10-02T21:00:00Z,28.8332,-90.8320,10.0,6.792,315.0,,'11111222,11111222,99999999' 
WAVCIS,ioos:station:WAVCIS:CSI15:1,2010-10-02T22:00:00Z,28.8332,-90.8320,10.0,4.303,359.0,,'11111222,11111222,99999999' 
WAVCIS,ioos:station:WAVCIS:CSI15:1,2010-10-02T23:00:00Z,28.8332,-90.8320,10.0,5.26,346.0,,'11111222,11111222,99999999' 
WAVCIS,ioos:station:WAVCIS:CSI15:1,2010-10-03T00:00:00Z,28.8332,-90.8320,10.0,5.61,335.0,,'11111222,11111222,99999999' 
WAVCIS,ioos:station:WAVCIS:CSI15:1,2010-10-03T01:00:00Z,28.8332,-90.8320,10.0,6.087,336.0,,'11111222,11111222,99999999' 
WAVCIS,ioos:station:WAVCIS:CSI15:1,2010-10-03T02:00:00Z,28.8332,-90.8320,10.0,9.24,311.0,,'11111222,11111222,99999999' 
WAVCIS,ioos:station:WAVCIS:CSI15:1,2010-10-03T03:00:00Z,28.8332,-90.8320,10.0,9.5,326.0,,'11111222,11111222,99999999' 
WAVCIS,ioos:station:WAVCIS:CSI15:1,2010-10-03T04:00:00Z,28.8332,-90.8320,10.0,11.36,337.0,,'11111222,11111222,99999999' 
WAVCIS,ioos:station:WAVCIS:CSI15:1,2010-10-03T05:00:00Z,28.8332,-90.8320,10.0,12.19,343.0,,'11111222,11111222,99999999' 
WAVCIS,ioos:station:WAVCIS:CSI15:1,2010-10-03T06:00:00Z,28.8332,-90.8320,10.0,11.48,351.0,,'11111222,11111222,99999999' 
WAVCIS,ioos:station:WAVCIS:CSI15:1,2010-10-03T07:00:00Z,28.8332,-90.8320,10.0,10.53,355.0,,'11111222,11111222,99999999' 
WAVCIS,ioos:station:WAVCIS:CSI15:1,2010-10-03T08:00:00Z,28.8332,-90.8320,10.0,11.93,358.0,,'11111222,11111222,99999999' 
WAVCIS,ioos:station:WAVCIS:CSI15:1,2010-10-03T09:00:00Z,28.8332,-90.8320,10.0,11.02,2.0,,'11111222,11111222,99999999' 
WAVCIS,ioos:station:WAVCIS:CSI15:1,2010-10-03T10:00:00Z,28.8332,-90.8320,10.0,10.63,2.0,,'11111222,11111222,99999999' 
WAVCIS,ioos:station:WAVCIS:CSI15:1,2010-10-03T11:00:00Z,28.8332,-90.8320,10.0,9.74,5.0,,'11111222,11111222,99999999' 
WAVCIS,ioos:station:WAVCIS:CSI15:1,2010-10-03T12:00:00Z,28.8332,-90.8320,10.0,10.13,6.0,,'11111222,11111222,99999999' 
WAVCIS,ioos:station:WAVCIS:CSI15:1,2010-10-03T13:00:00Z,28.8332,-90.8320,10.0,10.76,358.0,,'11111222,11111222,99999999' 
WAVCIS,ioos:station:WAVCIS:CSI15:1,2010-10-03T14:00:00Z,28.8332,-90.8320,10.0,11.3,1.0,,'11111222,11111222,99999999' 
WAVCIS,ioos:station:WAVCIS:CSI15:1,2010-10-03T15:00:00Z,28.8332,-90.8320,10.0,10.17,0.0,,'11111222,11144222,99999999' 
WAVCIS,ioos:station:WAVCIS:CSI15:1,2010-10-03T16:00:00Z,28.8332,-90.8320,10.0,9.07,0.0,,'11111222,11111222,99999999' 
WAVCIS,ioos:station:WAVCIS:CSI15:1,2010-10-03T17:00:00Z,28.8332,-90.8320,10.0,8.07,359.0,,'11111222,11111222,99999999' 
WAVCIS,ioos:station:WAVCIS:CSI15:1,2010-10-03T18:00:00Z,28.8332,-90.8320,10.0,6.829,346.0,,'11111222,11111222,99999999' 
WAVCIS,ioos:station:WAVCIS:CSI15:1,2010-10-03T19:00:00Z,28.8332,-90.8320,10.0,6.586,345.0,,'11111222,11111222,99999999' 
WAVCIS,ioos:station:WAVCIS:CSI15:1,2010-10-03T20:00:00Z,28.8332,-90.8320,10.0,5.928,342.0,,'11111222,11111222,99999999' 
WAVCIS,ioos:station:WAVCIS:CSI15:1,2010-10-03T21:00:00Z,28.8332,-90.8320,10.0,5.316,351.0,,'11111222,11111222,99999999' 
WAVCIS,ioos:station:WAVCIS:CSI15:1,2010-10-03T22:00:00Z,28.8332,-90.8320,10.0,5.882,348.0,,'11111222,11111222,99999999' 
WAVCIS,ioos:station:WAVCIS:CSI15:1,2010-10-03T23:00:00Z,28.8332,-90.8320,10.0,7.64,332.0,,'11111222,11111222,99999999' 
WAVCIS,ioos:station:WAVCIS:CSI15:1,2010-10-04T00:00:00Z,28.8332,-90.8320,10.0,8.73,339.0,,'11111222,11111222,99999999' 
WAVCIS,ioos:station:WAVCIS:CSI15:1,2010-10-04T01:00:00Z,28.8332,-90.8320,10.0,9.54,341.0,,'11111222,11111222,99999999' 
WAVCIS,ioos:station:WAVCIS:CSI15:1,2010-10-04T02:00:00Z,28.8332,-90.8320,10.0,10.12,358.0,,'11111222,11111222,99999999' 
WAVCIS,ioos:station:WAVCIS:CSI15:1,2010-10-04T03:00:00Z,28.8332,-90.8320,10.0,10.07,357.0,,'11111222,11111222,99999999' 
WAVCIS,ioos:station:WAVCIS:CSI15:1,2010-10-04T04:00:00Z,28.8332,-90.8320,10.0,10.84,1.0,,'11111222,11111222,99999999' 
WAVCIS,ioos:station:WAVCIS:CSI15:1,2010-10-04T05:00:00Z,28.8332,-90.8320,10.0,10.4,9.0,,'11111222,11111222,99999999' 
WAVCIS,ioos:station:WAVCIS:CSI15:1,2010-10-04T06:00:00Z,28.8332,-90.8320,10.0,11.56,13.0,,'11111222,11111222,99999999' 
WAVCIS,ioos:station:WAVCIS:CSI15:1,2010-10-04T07:00:00Z,28.8332,-90.8320,10.0,11.53,13.0,,'11111222,11111222,99999999' 
WAVCIS,ioos:station:WAVCIS:CSI15:1,2010-10-04T08:00:00Z,28.8332,-90.8320,10.0,10.93,18.0,,'11111222,11111222,99999999' 
WAVCIS,ioos:station:WAVCIS:CSI15:1,2010-10-04T09:00:00Z,28.8332,-90.8320,10.0,10.19,16.0,,'11111222,11111222,99999999' 
WAVCIS,ioos:station:WAVCIS:CSI15:1,2010-10-04T10:00:00Z,28.8332,-90.8320,10.0,10.15,18.0,,'11111222,11111222,99999999' 
WAVCIS,ioos:station:WAVCIS:CSI15:1,2010-10-04T11:00:00Z,28.8332,-90.8320,10.0,10.1,13.0,,'11111222,11111222,99999999' 
WAVCIS,ioos:station:WAVCIS:CSI15:1,2010-10-04T12:00:00Z,28.8332,-90.8320,10.0,9.82,13.0,,'11111222,11111222,99999999' 
WAVCIS,ioos:station:WAVCIS:CSI15:1,2010-10-04T13:00:00Z,28.8332,-90.8320,10.0,8.63,12.0,,'11111222,11111222,99999999' 
WAVCIS,ioos:station:WAVCIS:CSI15:1,2010-10-04T14:00:00Z,28.8332,-90.8320,10.0,8.75,10.0,,'11111222,11111222,99999999' 
WAVCIS,ioos:station:WAVCIS:CSI15:1,2010-10-04T15:00:00Z,28.8332,-90.8320,10.0,8.84,8.0,,'11111222,11111222,99999999' 
WAVCIS,ioos:station:WAVCIS:CSI15:1,2010-10-04T16:00:00Z,28.8332,-90.8320,10.0,7.48,13.0,,'11111222,11111222,99999999' 
WAVCIS,ioos:station:WAVCIS:CSI15:1,2010-10-04T17:00:00Z,28.8332,-90.8320,10.0,7.29,11.0,,'11111222,11111222,99999999' 
WAVCIS,ioos:station:WAVCIS:CSI15:1,2010-10-04T18:00:00Z,28.8332,-90.8320,10.0,6.736,0.0,,'11111222,11111222,99999999' 
WAVCIS,ioos:station:WAVCIS:CSI15:1,2010-10-04T19:00:00Z,28.8332,-90.8320,10.0,6.271,357.0,,'11111222,11111222,99999999' 
WAVCIS,ioos:station:WAVCIS:CSI15:1,2010-10-04T20:00:00Z,28.8332,-90.8320,10.0,6.057,0.0,,'11111222,11111222,99999999' 
WAVCIS,ioos:station:WAVCIS:CSI15:1,2010-10-04T21:00:00Z,28.8332,-90.8320,10.0,6.935,4.0,,'11111222,11111222,99999999' 
WAVCIS,ioos:station:WAVCIS:CSI15:1,2010-10-04T22:00:00Z,28.8332,-90.8320,10.0,7.67,5.0,,'11111222,11111222,99999999' 
WAVCIS,ioos:station:WAVCIS:CSI15:1,2010-10-04T23:00:00Z,28.8332,-90.8320,10.0,7.0,5.0,,'11111222,11111222,99999999' 
WAVCIS,ioos:station:WAVCIS:CSI15:1,2010-10-05T00:00:00Z,28.8332,-90.8320,10.0,7.37,354.0,,'11111222,11111222,99999999' 
WAVCIS,ioos:station:WAVCIS:CSI15:1,2010-10-05T01:00:00Z,28.8332,-90.8320,10.0,7.41,0.0,,'11111222,11111222,99999999' 
WAVCIS,ioos:station:WAVCIS:CSI15:1,2010-10-05T02:00:00Z,28.8332,-90.8320,10.0,8.22,0.0,,'11111222,11111222,99999999' 
WAVCIS,ioos:station:WAVCIS:CSI15:1,2010-10-05T03:00:00Z,28.8332,-90.8320,10.0,8.44,0.0,,'11111222,11111222,99999999' 
WAVCIS,ioos:station:WAVCIS:CSI15:1,2010-10-05T04:00:00Z,28.8332,-90.8320,10.0,7.67,13.0,,'11111222,11111222,99999999' 
WAVCIS,ioos:station:WAVCIS:CSI15:1,2010-10-05T05:00:00Z,28.8332,-90.8320,10.0,9.51,11.0,,'11111222,11111222,99999999' 
WAVCIS,ioos:station:WAVCIS:CSI15:1,2010-10-05T06:00:00Z,28.8332,-90.8320,10.0,10.0,15.0,,'11111222,11111222,99999999' 
WAVCIS,ioos:station:WAVCIS:CSI15:1,2010-10-05T07:00:00Z,28.8332,-90.8320,10.0,9.75,16.0,,'11111222,11111222,99999999' 
WAVCIS,ioos:station:WAVCIS:CSI15:1,2010-10-05T08:00:00Z,28.8332,-90.8320,10.0,9.52,22.0,,'11111222,11111222,99999999' 
WAVCIS,ioos:station:WAVCIS:CSI15:1,2010-10-05T09:00:00Z,28.8332,-90.8320,10.0,10.48,20.0,,'11111222,11111222,99999999' 
WAVCIS,ioos:station:WAVCIS:CSI15:1,2010-10-05T10:00:00Z,28.8332,-90.8320,10.0,10.58,23.0,,'11111222,11111222,99999999' 
WAVCIS,ioos:station:WAVCIS:CSI15:1,2010-10-05T11:00:00Z,28.8332,-90.8320,10.0,9.98,14.0,,'11111222,11111222,99999999' 
WAVCIS,ioos:station:WAVCIS:CSI15:1,2010-10-05T12:00:00Z,28.8332,-90.8320,10.0,9.42,15.0,,'11111222,11111222,99999999' 
WAVCIS,ioos:station:WAVCIS:CSI15:1,2010-10-05T13:00:00Z,28.8332,-90.8320,10.0,9.44,19.0,,'11111222,11111222,99999999' 
WAVCIS,ioos:station:WAVCIS:CSI15:1,2010-10-05T14:00:00Z,28.8332,-90.8320,10.0,8.88,22.0,,'11111222,11111222,99999999' 
WAVCIS,ioos:station:WAVCIS:CSI15:1,2010-10-05T15:00:00Z,28.8332,-90.8320,10.0,9.11,25.0,,'11111222,11111222,99999999' 
WAVCIS,ioos:station:WAVCIS:CSI15:1,2010-10-05T16:00:00Z,28.8332,-90.8320,10.0,9.71,19.0,,'11111222,11111222,99999999' 
WAVCIS,ioos:station:WAVCIS:CSI15:1,2010-10-05T17:00:00Z,28.8332,-90.8320,10.0,8.69,15.0,,'11111222,11111222,99999999' 
WAVCIS,ioos:station:WAVCIS:CSI15:1,2010-10-05T18:00:00Z,28.8332,-90.8320,10.0,9.27,13.0,,'11111222,11111222,99999999' 
WAVCIS,ioos:station:WAVCIS:CSI15:1,2010-10-05T19:00:00Z,28.8332,-90.8320,10.0,8.73,7.0,,'11111222,11111222,99999999' 
WAVCIS,ioos:station:WAVCIS:CSI15:1,2010-10-05T20:00:00Z,28.8332,-90.8320,10.0,7.21,8.0,,'11111222,11111222,99999999' 
WAVCIS,ioos:station:WAVCIS:CSI15:1,2010-10-05T21:00:00Z,28.8332,-90.8320,10.0,7.13,9.0,,'11111222,11111222,99999999' 
WAVCIS,ioos:station:WAVCIS:CSI15:1,2010-10-05T22:00:00Z,28.8332,-90.8320,10.0,6.369,15.0,,'11111222,11111222,99999999' 
WAVCIS,ioos:station:WAVCIS:CSI15:1,2010-10-05T23:00:00Z,28.8332,-90.8320,10.0,7.7,1.0,,'11111222,11111222,99999999' 
WAVCIS,ioos:station:WAVCIS:CSI15:1,2010-10-06T00:00:00Z,28.8332,-90.8320,10.0,7.57,1.0,,'11111222,11111222,99999999' 
WAVCIS,ioos:station:WAVCIS:CSI15:1,2010-10-06T01:00:00Z,28.8332,-90.8320,10.0,7.7,1.0,,'11111222,11111222,99999999' 
WAVCIS,ioos:station:WAVCIS:CSI15:1,2010-10-06T02:00:00Z,28.8332,-90.8320,10.0,7.46,1.0,,'11111222,11111222,99999999' 
WAVCIS,ioos:station:WAVCIS:CSI15:1,2010-10-06T03:00:00Z,28.8332,-90.8320,10.0,7.51,1.0,,'11111222,11111222,99999999' 
WAVCIS,ioos:station:WAVCIS:CSI15:1,2010-10-06T04:00:00Z,28.8332,-90.8320,10.0,7.26,5.0,,'11111222,11111222,99999999' 
WAVCIS,ioos:station:WAVCIS:CSI15:1,2010-10-06T05:00:00Z,28.8332,-90.8320,10.0,7.87,3.0,,'11111222,11111222,99999999' 
WAVCIS,ioos:station:WAVCIS:CSI15:1,2010-10-06T06:00:00Z,28.8332,-90.8320,10.0,7.9,5.0,,'11111222,11111222,99999999' 
WAVCIS,ioos:station:WAVCIS:CSI15:1,2010-10-06T07:00:00Z,28.8332,-90.8320,10.0,7.72,7.0,,'11111222,11111222,99999999' 
WAVCIS,ioos:station:WAVCIS:CSI15:1,2010-10-06T08:00:00Z,28.8332,-90.8320,10.0,9.08,25.0,,'11111222,11111222,99999999' 
WAVCIS,ioos:station:WAVCIS:CSI15:1,2010-10-06T09:00:00Z,28.8332,-90.8320,10.0,8.41,20.0,,'11111222,11111222,99999999' 
WAVCIS,ioos:station:WAVCIS:CSI15:1,2010-10-06T10:00:00Z,28.8332,-90.8320,10.0,8.16,17.0,,'11111222,11111222,99999999' 
WAVCIS,ioos:station:WAVCIS:CSI15:1,2010-10-06T11:00:00Z,28.8332,-90.8320,10.0,7.91,2.0,,'11111222,11111222,99999999' 
WAVCIS,ioos:station:WAVCIS:CSI15:1,2010-10-06T12:00:00Z,28.8332,-90.8320,10.0,7.82,4.0,,'11111222,11111222,99999999' 
WAVCIS,ioos:station:WAVCIS:CSI15:1,2010-10-06T13:00:00Z,28.8332,-90.8320,10.0,8.38,9.0,,'11111222,11111222,99999999' 
WAVCIS,ioos:station:WAVCIS:CSI15:1,2010-10-06T14:00:00Z,28.8332,-90.8320,10.0,9.62,5.0,,'11111222,11111222,99999999' 
WAVCIS,ioos:station:WAVCIS:CSI15:1,2010-10-06T15:00:00Z,28.8332,-90.8320,10.0,9.21,8.0,,'11111222,11111222,99999999' 
WAVCIS,ioos:station:WAVCIS:CSI15:1,2010-10-06T16:00:00Z,28.8332,-90.8320,10.0,8.88,6.0,,'11111222,11111222,99999999' 
WAVCIS,ioos:station:WAVCIS:CSI15:1,2010-10-06T17:00:00Z,28.8332,-90.8320,10.0,8.73,14.0,,'11111222,11111222,99999999' 
WAVCIS,ioos:station:WAVCIS:CSI15:1,2010-10-06T18:00:00Z,28.8332,-90.8320,10.0,8.6,16.0,,'11111222,11111222,99999999' 
WAVCIS,ioos:station:WAVCIS:CSI15:1,2010-10-06T19:00:00Z,28.8332,-90.8320,10.0,7.51,9.0,,'11111222,11111222,99999999' 
WAVCIS,ioos:station:WAVCIS:CSI15:1,2010-10-06T20:00:00Z,28.8332,-90.8320,10.0,6.072,9.0,,'11111222,11111222,99999999' 
WAVCIS,ioos:station:WAVCIS:CSI15:1,2010-10-06T21:00:00Z,28.8332,-90.8320,10.0,5.257,20.0,,'11111222,11111222,99999999' 
WAVCIS,ioos:station:WAVCIS:CSI15:1,2010-10-06T22:00:00Z,28.8332,-90.8320,10.0,4.922,16.0,,'11111222,11111222,99999999' 
WAVCIS,ioos:station:WAVCIS:CSI15:1,2010-10-06T23:00:00Z,28.8332,-90.8320,10.0,4.857,20.0,,'11111222,11111222,99999999' 
WAVCIS,ioos:station:WAVCIS:CSI15:1,2010-10-07T00:00:00Z,28.8332,-90.8320,10.0,4.696,19.0,,'11111222,11111222,99999999' 
WAVCIS,ioos:station:WAVCIS:CSI15:1,2010-10-07T01:00:00Z,28.8332,-90.8320,10.0,4.308,19.0,,'11111222,11111222,99999999' 
WAVCIS,ioos:station:WAVCIS:CSI15:1,2010-10-07T02:00:00Z,28.8332,-90.8320,10.0,3.327,8.0,,'11111222,11111222,99999999' 
WAVCIS,ioos:station:WAVCIS:CSI15:1,2010-10-07T03:00:00Z,28.8332,-90.8320,10.0,2.947,330.0,,'11111222,11111222,99999999' 
WAVCIS,ioos:station:WAVCIS:CSI15:1,2010-10-07T04:00:00Z,28.8332,-90.8320,10.0,3.002,272.0,,'11111222,11111222,99999999' 
WAVCIS,ioos:station:WAVCIS:CSI15:1,2010-10-07T05:00:00Z,28.8332,-90.8320,10.0,4.817,271.0,,'11111222,11111222,99999999' 
WAVCIS,ioos:station:WAVCIS:CSI15:1,2010-10-07T06:00:00Z,28.8332,-90.8320,10.0,4.683,275.0,,'11111222,11111222,99999999' 
WAVCIS,ioos:station:WAVCIS:CSI15:1,2010-10-07T07:00:00Z,28.8332,-90.8320,10.0,5.905,289.0,,'11111222,11111222,99999999' 
WAVCIS,ioos:station:WAVCIS:CSI15:1,2010-10-07T08:00:00Z,28.8332,-90.8320,10.0,6.578,302.0,,'11111222,11111222,99999999' 
WAVCIS,ioos:station:WAVCIS:CSI15:1,2010-10-07T09:00:00Z,28.8332,-90.8320,10.0,6.516,332.0,,'11111222,11111222,99999999' 
WAVCIS,ioos:station:WAVCIS:CSI15:1,2010-10-07T10:00:00Z,28.8332,-90.8320,10.0,6.209,347.0,,'11111222,11111222,99999999' 
WAVCIS,ioos:station:WAVCIS:CSI15:1,2010-10-07T11:00:00Z,28.8332,-90.8320,10.0,5.928,8.0,,'11111222,11111222,99999999' 
WAVCIS,ioos:station:WAVCIS:CSI15:1,2010-10-07T12:00:00Z,28.8332,-90.8320,10.0,7.86,13.0,,'11111222,11111222,99999999' 
WAVCIS,ioos:station:WAVCIS:CSI15:1,2010-10-07T13:00:00Z,28.8332,-90.8320,10.0,7.22,11.0,,'11111222,11111222,99999999' 
WAVCIS,ioos:station:WAVCIS:CSI15:1,2010-10-07T14:00:00Z,28.8332,-90.8320,10.0,5.838,9.0,,'11111222,11111222,99999999' 
WAVCIS,ioos:station:WAVCIS:CSI15:1,2010-10-07T15:00:00Z,28.8332,-90.8320,10.0,5.0,0.0,,'11111222,11111222,99999999' 
WAVCIS,ioos:station:WAVCIS:CSI15:1,2010-10-07T16:00:00Z,28.8332,-90.8320,10.0,5.116,352.0,,'11111222,11111222,99999999' 
WAVCIS,ioos:station:WAVCIS:CSI15:1,2010-10-07T17:00:00Z,28.8332,-90.8320,10.0,4.395,358.0,,'11111222,11111222,99999999' 
WAVCIS,ioos:station:WAVCIS:CSI15:1,2010-10-07T18:00:00Z,28.8332,-90.8320,10.0,3.952,1.0,,'11111222,11111222,99999999' 
WAVCIS,ioos:station:WAVCIS:CSI15:1,2010-10-07T19:00:00Z,28.8332,-90.8320,10.0,3.605,6.0,,'11111222,11111222,99999999' 
WAVCIS,ioos:station:WAVCIS:CSI15:1,2010-10-07T20:00:00Z,28.8332,-90.8320,10.0,2.465,4.0,,'11111222,11111222,99999999' 
WAVCIS,ioos:station:WAVCIS:CSI15:1,2010-10-07T21:00:00Z,28.8332,-90.8320,10.0,2.227,8.0,,'11111222,11111222,99999999' 
WAVCIS,ioos:station:WAVCIS:CSI15:1,2010-10-07T22:00:00Z,28.8332,-90.8320,10.0,1.013,359.0,,'11111222,11111222,99999999' 
WAVCIS,ioos:station:WAVCIS:CSI15:1,2010-10-07T23:00:00Z,28.8332,-90.8320,10.0,1.53,272.0,,'11111222,11111222,99999999' 
WAVCIS,ioos:station:WAVCIS:CSI15:1,2010-10-08T00:00:00Z,28.8332,-90.8320,10.0,2.835,265.0,,'11111222,11111222,99999999' 
WAVCIS,ioos:station:WAVCIS:CSI15:1,2010-10-08T01:00:00Z,28.8332,-90.8320,10.0,3.167,286.0,,'11111222,11111222,99999999' 
WAVCIS,ioos:station:WAVCIS:CSI15:1,2010-10-08T02:00:00Z,28.8332,-90.8320,10.0,2.562,274.0,,'11111222,11111222,99999999' 
WAVCIS,ioos:station:WAVCIS:CSI15:1,2010-10-08T03:00:00Z,28.8332,-90.8320,10.0,3.235,272.0,,'11111222,11111222,99999999' 
WAVCIS,ioos:station:WAVCIS:CSI15:1,2010-10-08T04:00:00Z,28.8332,-90.8320,10.0,3.894,271.0,,'11111222,11111222,99999999' 
WAVCIS,ioos:station:WAVCIS:CSI15:1,2010-10-08T05:00:00Z,28.8332,-90.8320,10.0,3.932,295.0,,'11111222,11111222,99999999' 
WAVCIS,ioos:station:WAVCIS:CSI15:1,2010-10-08T06:00:00Z,28.8332,-90.8320,10.0,3.981,303.0,,'11111222,11111222,99999999' 
WAVCIS,ioos:station:WAVCIS:CSI15:1,2010-10-08T07:00:00Z,28.8332,-90.8320,10.0,3.643,296.0,,'11111222,11111222,99999999' 
WAVCIS,ioos:station:WAVCIS:CSI15:1,2010-10-08T08:00:00Z,28.8332,-90.8320,10.0,4.202,294.0,,'11111222,11111222,99999999' 
WAVCIS,ioos:station:WAVCIS:CSI15:1,2010-10-08T09:00:00Z,28.8332,-90.8320,10.0,5.564,296.0,,'11111222,11111222,99999999' 
WAVCIS,ioos:station:WAVCIS:CSI15:1,2010-10-08T10:00:00Z,28.8332,-90.8320,10.0,7.19,300.0,,'11111222,11111222,99999999' 
WAVCIS,ioos:station:WAVCIS:CSI15:1,2010-10-08T11:00:00Z,28.8332,-90.8320,10.0,7.47,302.0,,'11111222,11111222,99999999' 
WAVCIS,ioos:station:WAVCIS:CSI15:1,2010-10-08T12:00:00Z,28.8332,-90.8320,10.0,7.15,304.0,,'11111222,11111222,99999999' 
WAVCIS,ioos:station:WAVCIS:CSI15:1,2010-10-08T13:00:00Z,28.8332,-90.8320,10.0,6.823,307.0,,'11111222,11111222,99999999' 
WAVCIS,ioos:station:WAVCIS:CSI15:1,2010-10-08T14:00:00Z,28.8332,-90.8320,10.0,6.406,316.0,,'11111222,11111222,99999999' 
WAVCIS,ioos:station:WAVCIS:CSI15:1,2010-10-08T15:00:00Z,28.8332,-90.8320,10.0,6.004,315.0,,'11111222,11111222,99999999' 
WAVCIS,ioos:station:WAVCIS:CSI15:1,2010-10-08T16:00:00Z,28.8332,-90.8320,10.0,3.685,319.0,,'11111222,11111222,99999999' 
WAVCIS,ioos:station:WAVCIS:CSI15:1,2010-10-08T17:00:00Z,28.8332,-90.8320,10.0,3.192,304.0,,'11111222,11111222,99999999' 
WAVCIS,ioos:station:WAVCIS:CSI15:1,2010-10-08T18:00:00Z,28.8332,-90.8320,10.0,2.84,303.0,,'11111222,11111222,99999999' 
WAVCIS,ioos:station:WAVCIS:CSI15:1,2010-10-08T19:00:00Z,28.8332,-90.8320,10.0,2.641,304.0,,'11111222,11111222,99999999' 
WAVCIS,ioos:station:WAVCIS:CSI15:1,2010-10-08T20:00:00Z,28.8332,-90.8320,10.0,1.296,287.0,,'11111222,11111222,99999999' 
WAVCIS,ioos:station:WAVCIS:CSI15:1,2010-10-08T21:00:00Z,28.8332,-90.8320,10.0,1.985,287.0,,'11111222,11111222,99999999' 
WAVCIS,ioos:station:WAVCIS:CSI15:1,2010-10-11T18:00:00Z,28.8332,-90.8320,10.0,2.472,147.0,,'11111222,11111222,99999999' 
WAVCIS,ioos:station:WAVCIS:CSI15:1,2010-10-11T19:00:00Z,28.8332,-90.8320,10.0,3.199,163.0,,'11111222,11111222,99999999' 
WAVCIS,ioos:station:WAVCIS:CSI15:1,2010-10-11T20:00:00Z,28.8332,-90.8320,10.0,3.628,167.0,,'11111222,11111222,99999999' 
WAVCIS,ioos:station:WAVCIS:CSI15:1,2010-10-11T21:00:00Z,28.8332,-90.8320,10.0,4.658,153.0,,'11111222,11111222,99999999' 
WAVCIS,ioos:station:WAVCIS:CSI15:1,2010-10-11T22:00:00Z,28.8332,-90.8320,10.0,5.322,156.0,,'11111222,11111222,99999999' 
WAVCIS,ioos:station:WAVCIS:CSI15:1,2010-10-11T23:00:00Z,28.8332,-90.8320,10.0,5.987,158.0,,'11111222,11111222,99999999' 
WAVCIS,ioos:station:WAVCIS:CSI15:1,2010-10-12T00:00:00Z,28.8332,-90.8320,10.0,6.501,155.0,,'11111222,11111222,99999999' 
WAVCIS,ioos:station:WAVCIS:CSI15:1,2010-10-12T01:00:00Z,28.8332,-90.8320,10.0,6.778,158.0,,'11111222,11111222,99999999' 
WAVCIS,ioos:station:WAVCIS:CSI15:1,2010-10-12T02:00:00Z,28.8332,-90.8320,10.0,6.186,169.0,,'11111222,11111222,99999999' 